THORAD AGENA D DEB, 4653

Orbit data source: Space-Track

THORAD AGENA D DEB, 4653 is space debris in SSO originally from a launch on Wed, 08 Apr 1970 UTC launched from the Air Force Western Test Range (AFWTR). Debris objects in space refer to the collection of defunct objects orbiting the Earth. Examples of debris include non-operational satellites, rocket bodies, and fragments generated from explosions, collisions, or faulty payload assembly.

Loading next visibility...
Identifier
4653, 1970-025AM
Orbit
SSO
Country
Flag of USUS
Related business
Manufacturer
Unknown
Mission
Spacecraft
Bus & Motor
Unknown
Mass
Unknown
Launch date (UTC)
1970-04-08 (56 years ago)
Launch vehicle
Unknown
Launch site
Air Force Western Test Range (AFWTR)
Object type
Payload
Rocket body
Debris
Shape & HBR
Unknown shape, 0.1 m
Radar Cross Section
Small (<0.1 m²)

Expand to show TLE details & history
Last TLE update: 22 hours ago

TLE from 22 hours ago
0 THORAD AGENA D DEB
1 04653U 70025AM  25294.80974480  .00020012  00000-0  41600-2 0  9992
2 04653  99.9921 194.9136 0012779 288.6646  71.3160 14.60070806832326
Epoch: 2025-10-21T19:26Z
TLE epoch observation values (Epoch: 2025-10-21T19:26:01.950Z)
Latitude
-0.00009°
Longitude
-127.08688°
Altitude
692.985 km
Speed
7.511 km/s
True Right ascension
12h 59m 39s
True Declination
0° 00' 00"
Sunlit
Object was in daylight at epoch
Visualization orbit readout
Latitude
Unknown
Longitude
Unknown
Altitude
Unknown
Speed
Unknown
Apparent Right ascension
Unknown
Apparent Declination
Unknown
Sunlit
N/A
Visualization observer readout
Local Sidereal Time
12:32:10
Azimuth
Unknown
Elevation
Unknown
Doppler factor
Unknown
Orbital elements
Apogee altitude
699.15 km
Perigee altitude
681.085 km
Semi-major axis
7,068.255 km
Eccentricity
0.00128
Inclination
99.9921°
RAAN
194.9136°
Arg. of periapsis
288.6646°
True anomaly
71.45479°
Mean anomaly
71.316°
Eccentric anomaly
71.38539°
Mean motion
3.65237 °/min
Orbital period
98.57 mins
BSTAR
0.00416

Documentation

Showing up to 5 results
|